TimeAEST,TemperatureF,Dew PointF,Humidity,Sea Level PressureIn,VisibilityMPH,Wind Direction,Wind SpeedMPH,Gust SpeedMPH,PrecipitationIn,Events,Conditions,WindDirDegrees,DateUTC
12:00 AM,71,64,74,30.02,,South,9.2,,,,,180,2012-09-01 14:00:00
12:00 AM,71.6,64.4,78,30.01,6.2,South,9.2,-,N/A,,Scattered Clouds,180,2012-09-01 14:00:00
12:30 AM,71.6,64.4,78,30.01,6.2,South,8.1,-,N/A,Rain,Light Rain Showers,170,2012-09-01 14:30:00
1:00 AM,71,65,76,30.02,,South,10.4,,,,,180,2012-09-01 15:00:00
1:00 AM,71.6,64.4,78,30.01,6.2,South,10.4,-,N/A,,Partly Cloudy,180,2012-09-01 15:00:00
1:30 AM,71.6,64.4,78,30.01,6.2,South,9.2,-,N/A,,Partly Cloudy,180,2012-09-01 15:30:00
2:00 AM,71.6,64.4,78,29.98,6.2,South,10.4,-,N/A,,Mostly Cloudy,170,2012-09-01 16:00:00
2:30 AM,71.6,64.4,78,29.98,6.2,South,9.2,-,N/A,,Unknown,180,2012-09-01 16:30:00
3:00 AM,71,65,75,29.98,,South,9.2,,,,,180,2012-09-01 17:00:00
3:00 AM,71.6,64.4,78,29.98,6.2,South,9.2,-,N/A,,Partly Cloudy,180,2012-09-01 17:00:00
3:30 AM,69.8,64.4,83,29.98,6.2,SSE,8.1,-,N/A,,Scattered Clouds,160,2012-09-01 17:30:00
4:00 AM,70,65,79,29.99,,South,8.1,,,,,170,2012-09-01 18:00:00
4:00 AM,69.8,64.4,83,29.98,6.2,South,8.1,-,N/A,,Partly Cloudy,170,2012-09-01 18:00:00
4:30 AM,69.8,64.4,83,29.98,6.2,South,8.1,-,N/A,,Partly Cloudy,170,2012-09-01 18:30:00
5:00 AM,69.8,64.4,83,29.98,6.2,South,10.4,-,N/A,,Partly Cloudy,170,2012-09-01 19:00:00
5:30 AM,69.8,64.4,83,30.01,6.2,South,10.4,-,N/A,,Partly Cloudy,180,2012-09-01 19:30:00
6:00 AM,71,64,73,30.01,19,South,9.2,,,,Partly Cloudy,170,2012-09-01 20:00:00
6:00 AM,69.8,64.4,83,30.01,6.2,South,9.2,-,N/A,,Partly Cloudy,170,2012-09-01 20:00:00
6:30 AM,71.6,64.4,78,30.01,6.2,South,9.2,-,N/A,,Partly Cloudy,170,2012-09-01 20:30:00
7:00 AM,71,64,72,30.04,,SSE,9.2,,,,,160,2012-09-01 21:00:00
7:00 AM,71.6,64.4,78,30.04,6.2,SSE,9.2,-,N/A,,Partly Cloudy,160,2012-09-01 21:00:00
7:30 AM,71.6,64.4,78,30.04,6.2,South,10.4,-,N/A,,Scattered Clouds,170,2012-09-01 21:30:00
8:00 AM,73.4,64.4,73,30.04,6.2,South,9.2,-,N/A,,Mostly Cloudy,170,2012-09-01 22:00:00
8:30 AM,73.4,62.6,69,30.06,6.2,South,10.4,-,N/A,,Mostly Cloudy,170,2012-09-01 22:30:00
9:00 AM,74,64,62,30.07,19,SSE,13.8,,,,Mostly Cloudy,160,2012-09-01 23:00:00
9:00 AM,75.2,64.4,69,30.06,6.2,SSE,13.8,-,N/A,,Mostly Cloudy,160,2012-09-01 23:00:00
9:30 AM,77.0,62.6,61,30.06,6.2,SE,17.3,-,N/A,,Scattered Clouds,140,2012-09-01 23:30:00
10:00 AM,78,62,49,30.08,,SE,18.4,,,,,140,2012-09-02 00:00:00
10:00 AM,78.8,62.6,57,30.06,6.2,SE,18.4,-,N/A,,Scattered Clouds,140,2012-09-02 00:00:00
10:30 AM,77.0,62.6,61,30.06,6.2,SE,18.4,-,N/A,,Scattered Clouds,140,2012-09-02 00:30:00
11:00 AM,78.8,60.8,54,30.06,6.2,SE,17.3,-,N/A,,Scattered Clouds,140,2012-09-02 01:00:00
11:30 AM,82.4,60.8,48,30.04,6.2,ESE,17.3,-,N/A,,Scattered Clouds,120,2012-09-02 01:30:00
12:00 PM,81,60,38,30.04,19,ESE,17.3,,,,Partly Cloudy,120,2012-09-02 02:00:00
12:00 PM,80.6,59.0,48,30.04,6.2,ESE,17.3,-,N/A,,Partly Cloudy,120,2012-09-02 02:00:00
12:30 PM,80.6,60.8,51,30.01,6.2,SE,19.6,-,N/A,,Partly Cloudy,130,2012-09-02 02:30:00
1:00 PM,80,59,38,30.02,,SE,20.7,,,,,130,2012-09-02 03:00:00
1:00 PM,80.6,59.0,48,30.01,6.2,SE,20.7,-,N/A,,Partly Cloudy,130,2012-09-02 03:00:00
1:30 PM,80.6,59.0,48,29.98,6.2,SE,21.9,-,N/A,,Partly Cloudy,130,2012-09-02 03:30:00
2:00 PM,78.8,59.0,51,29.98,6.2,SE,20.7,-,N/A,,Partly Cloudy,130,2012-09-02 04:00:00
2:30 PM,80.6,59.0,48,29.98,6.2,SE,23.0,-,N/A,,Partly Cloudy,130,2012-09-02 04:30:00
3:00 PM,80,60,39,29.98,19,SE,21.9,,,,Partly Cloudy,130,2012-09-02 05:00:00
3:00 PM,80.6,59.0,48,29.98,6.2,SE,21.9,-,N/A,,Scattered Clouds,130,2012-09-02 05:00:00
3:30 PM,78.8,59.0,51,29.98,6.2,SE,21.9,-,N/A,,Scattered Clouds,130,2012-09-02 05:30:00
4:00 PM,79,60,41,29.99,,SE,19.6,,,,,130,2012-09-02 06:00:00
4:00 PM,78.8,59.0,51,29.98,6.2,SE,19.6,-,N/A,,Scattered Clouds,130,2012-09-02 06:00:00
4:30 PM,75.2,59.0,57,29.98,6.2,SE,19.6,-,N/A,,Scattered Clouds,130,2012-09-02 06:30:00
5:00 PM,75.2,60.8,61,29.98,6.2,SE,18.4,-,N/A,,Scattered Clouds,130,2012-09-02 07:00:00
5:30 PM,75.2,60.8,61,30.01,6.2,SE,17.3,-,N/A,,Scattered Clouds,130,2012-09-02 07:30:00
6:00 PM,74,61,54,30.02,,SE,15.0,,,,Overcast,140,2012-09-02 08:00:00
6:00 PM,73.4,60.8,65,30.01,6.2,SE,15.0,-,N/A,,Mostly Cloudy,140,2012-09-02 08:00:00
6:30 PM,73.4,60.8,65,30.01,6.2,SE,13.8,-,N/A,,Mostly Cloudy,140,2012-09-02 08:30:00
7:00 PM,73,60,55,30.04,,SSE,15.0,,,,,150,2012-09-02 09:00:00
7:00 PM,73.4,60.8,65,30.04,6.2,SSE,15.0,-,N/A,,Scattered Clouds,150,2012-09-02 09:00:00
7:30 PM,73.4,60.8,65,30.04,6.2,SE,13.8,-,N/A,,Scattered Clouds,140,2012-09-02 09:30:00
8:00 PM,73.4,60.8,65,30.06,6.2,SSE,11.5,-,N/A,,Mostly Cloudy,150,2012-09-02 10:00:00
8:30 PM,71.6,60.8,69,30.06,6.2,South,8.1,-,N/A,,Scattered Clouds,170,2012-09-02 10:30:00
9:00 PM,72,60,57,30.08,12,South,8.1,,,,Partly Cloudy,190,2012-09-02 11:00:00
9:00 PM,71.6,60.8,69,30.06,6.2,South,8.1,-,N/A,,Mostly Cloudy,190,2012-09-02 11:00:00
9:30 PM,71.6,59.0,64,30.06,6.2,South,8.1,-,N/A,,Mostly Cloudy,170,2012-09-02 11:30:00
10:00 PM,71,59,58,30.08,,South,9.2,,,,,180,2012-09-02 12:00:00
10:00 PM,71.6,59.0,64,30.06,6.2,South,9.2,-,N/A,,Mostly Cloudy,180,2012-09-02 12:00:00
10:30 PM,73.4,59.0,61,30.06,6.2,SSE,9.2,-,N/A,,Mostly Cloudy,150,2012-09-02 12:30:00
11:00 PM,71.6,59.0,64,30.06,6.2,SSE,10.4,-,N/A,,Mostly Cloudy,160,2012-09-02 13:00:00
11:30 PM,71.6,59.0,64,30.06,6.2,South,8.1,-,N/A,,Mostly Cloudy,170,2012-09-02 13:30:00